Temperature
18 19 18 19 19 19 19 19 19 19 19 19 19 19 19 19 19 19 19 19 19 19 19 19 19 19 19 19 19 19 19 19 18 18 18 18 18 18 18 18 18 19 18
19 19 18 19 19 19 19 19 19 19 19 19 19 19 19 19 19 19 19 19 19 19 19 19 19 19 19 19 19 19 19 19 18 18 18 18 18 18 18 18 18 18 18
19 19 18 18 18 18 18 18 19 19 19 19 19 19 19 19 19 19 19 19 19 19 19 19 19 19 19 19 19 19 19 19 18 18 18 18 18 18 18 18 18 18 18
19 19 18 18 18 18 18 18 18 18 18 18 18 18 18 18 18 18 18 18 18 18 18 18 18 19 19 19 19 19 19 18 18 18 18 18 18 18 18 18 18 18 18
19 19 18 18 18 18 18 18 18 18 18 18 18 18 18 18 18 18 18 18 18 18 18 18 18 18 18 18 19 19 19 18 18 18 18 18 18 18 18 18 18 18 18
19 19 18 18 18 18 18 18 18 18 18 18 18 17 17 17 17 17 18 18 18 18 18 18 18 18 18 18 18 18 18 18 18 18 18 18 18 18 18 18 18 18 18
19 19 19 18 18 18 18 17 17 17 17 17 17 17 17 17 17 17 17 17 17 17 18 18 18 18 18 18 18 18 18 18 18 18 18 18 18 18 18 18 18 18 18
19 19 19 18 18 18 17 17 17 17 17 17 17 16 16 16 16 17 17 17 17 17 17 17 17 18 18 18 18 18 18 18 18 18 18 18 18 18 18 18 18 18 18
19 19 19 18 18 17 17 17 17 16 16 16 16 16 16 16 16 16 16 16 16 16 17 17 17 17 17 18 18 18 18 18 18 18 18 18 18 18 18 18 18 18 18
19 19 19 18 18 17 17 17 16 16 16 16 15 15 15 15 15 16 16 16 16 16 16 16 17 17 17 17 17 17 17 17 17 17 18 18 18 18 18 18 18 18 18
19 19 18 18 18 17 17 16 16 16 16 15 15 15 15 15 15 15 15 15 16 16 16 16 16 16 17 17 17 17 17 17 17 17 17 17 17 17 18 18 18 18 18
19 19 18 18 18 17 17 16 16 16 16 15 15 15 15 15 15 15 15 15 15 15 15 16 16 16 16 17 17 17 17 17 17 17 17 17 17 17 18 18 18 18 18
19 19 18 18 18 17 17 16 16 16 15 15 15 15 15 15 15 15 15 15 15 15 15 15 16 16 16 16 17 17 17 17 17 17 17 17 17 17 18 18 18 18 18
19 19 19 18 18 17 17 16 16 16 15 15 15 15 15 15 15 15 15 15 15 15 15 15 15 16 16 16 16 16 17 17 17 17 17 17 17 17 17 18 18 18 18
20 19 19 18 18 17 17 16 16 16 15 15 15 15 15 15 15 15 15 15 15 15 15 15 15 15 16 16 16 16 16 17 17 17 17 17 17 17 17 18 18 18 18
20 19 19 18 18 17 17 16 16 15 15 15 15 15 15 15 15 14 14 15 15 15 15 15 15 15 15 15 16 16 16 16 16 17 17 17 17 17 17 17 18 18 18
20 19 19 18 18 17 17 16 16 15 15 15 15 14 14 14 14 14 14 14 14 14 15 15 15 15 15 15 16 16 16 16 16 17 17 17 17 17 17 17 17 17 18
20 19 19 18 18 17 16 16 15 15 15 15 14 14 14 14 14 14 14 14 14 14 14 15 15 15 15 15 15 15 16 16 16 16 16 17 17 17 17 17 17 17 17
20 19 19 18 18 17 16 16 15 15 15 14 14 14 14 14 14 14 14 14 14 14 14 14 14 15 15 15 15 15 16 16 16 16 16 17 17 17 17 17 17 17 17
20 19 19 18 17 17 16 16 15 15 14 14 14 14 14 14 13 14 14 14 14 14 14 14 14 14 15 15 15 15 15 15 16 16 16 17 17 17 17 17 17 17 17
20 19 19 18 18 17 16 16 15 15 14 14 14 14 13 13 13 13 13 13 14 14 14 14 14 14 14 14 15 15 15 15 15 16 16 16 16 17 17 17 17 17 17
20 20 19 18 18 17 16 16 15 14 14 14 14 13 13 13 13 13 13 13 13 13 14 14 14 14 14 14 14 15 15 15 15 16 16 16 16 16 17 17 17 17 17
20 20 19 18 18 17 16 16 15 14 14 14 14 13 13 13 13 13 13 13 13 13 13 13 14 14 14 14 14 15 15 15 15 15 16 16 16 16 16 17 17 17 17
20 20 19 18 18 17 16 16 15 14 14 14 14 13 13 13 13 13 13 13 13 13 13 13 13 14 14 14 14 14 15 15 15 15 15 16 16 16 16 16 16 17 17
20 20 19 18 18 17 16 16 15 15 14 14 14 14 13 13 13 13 13 13 13 13 13 13 13 13 14 14 14 14 14 15 15 15 15 15 16 16 16 16 16 16 16
20 19 19 18 18 17 16 16 15 15 14 14 14 14 14 13 13 13 13 13 13 13 13 13 13 13 13 14 14 14 14 14 15 15 15 15 15 15 15 16 16 16 16
Wind_Speed
5 7 12 11 10 9 8 8 8 8 8 7 7 7 7 7 7 7 7 6 6 6 6 6 5 5 6 6 6 6 6 6 6 6 5 6 6 6 7 8 8 8 10
8 9 12 11 10 9 8 7 7 6 6 6 5 5 5 5 5 5 5 4 4 4 4 4 4 4 4 4 4 4 4 4 4 4 3 3 3 5 6 7 8 7 9
10 10 11 11 10 9 8 7 6 5 5 4 4 3 3 3 3 3 3 3 2 2 2 3 3 3 3 2 2 2 2 3 3 3 3 1 2 5 6 7 8 8 9
11 11 11 11 10 8 7 6 5 5 4 4 3 2 2 2 1 1 1 1 0 1 1 2 2 2 2 2 1 0 1 1 2 3 2 0 2 6 7 7 8 8 8
10 11 12 12 10 9 7 6 5 4 3 3 2 1 1 0 0 1 1 1 2 2 3 3 3 3 3 3 2 2 2 2 2 3 2 1 3 6 7 8 8 8 8
9 11 12 12 11 9 8 6 4 3 2 1 0 1 1 1 2 3 3 3 3 4 4 4 4 4 5 5 4 4 3 3 3 2 2 2 5 7 8 8 8 8 8
9 9 12 13 11 10 8 6 4 3 1 0 1 2 2 3 4 4 5 5 5 5 5 5 5 6 6 7 6 6 5 5 3 3 3 4 6 9 9 8 9 9 9
11 9 11 13 12 10 9 6 5 3 1 1 1 2 3 5 5 6 6 7 7 6 6 6 6 6 7 8 7 7 7 6 3 2 3 5 7 9 9 9 9 9 9
9 8 8 10 11 10 9 7 5 4 3 3 3 4 5 6 7 7 8 8 8 8 8 8 8 7 8 8 8 8 7 6 4 3 4 5 8 10 10 10 9 9 9
8 8 7 8 8 8 8 7 6 5 4 4 5 6 6 7 8 9 9 9 9 9 9 8 9 8 9 8 8 8 8 6 4 4 4 6 10 11 11 11 10 10 9
7 6 6 6 6 7 7 6 5 4 4 4 5 6 6 6 7 7 8 7 8 8 9 9 9 9 9 8 8 7 6 3 3 4 5 8 11 11 11 11 11 10 10
7 6 6 6 5 6 6 5 3 3 3 4 4 5 5 5 5 5 6 6 7 7 8 9 9 8 7 3 5 4 2 3 3 4 6 9 11 12 12 11 11 11 11
7 7 6 7 6 5 2 3 2 1 1 2 2 2 2 3 4 3 3 4 4 5 4 6 5 4 2 2 2 2 2 2 3 4 6 9 12 12 12 11 11 11 11
8 7 7 8 6 4 3 2 2 1 1 0 1 3 2 1 2 2 2 3 3 2 2 3 2 2 3 3 3 3 3 2 3 4 5 8 11 12 12 12 11 11 11
8 8 7 7 7 5 3 1 2 2 1 1 3 4 3 2 2 3 2 2 2 2 1 2 2 2 2 3 3 3 3 3 3 3 4 6 9 12 12 12 12 11 11
9 8 7 7 7 6 4 3 2 2 2 3 3 5 6 3 2 3 3 3 2 2 1 1 2 2 2 2 3 3 3 3 3 3 3 5 7 9 10 11 11 12 12
11 9 8 8 7 7 5 4 3 2 3 3 3 6 7 5 3 2 3 3 3 3 2 1 1 1 1 1 2 3 2 2 2 2 2 3 5 8 9 10 10 11 12
11 9 8 8 8 6 5 4 2 3 3 3 3 4 6 6 5 3 3 3 3 3 2 1 1 1 1 1 1 1 1 1 2 3 2 2 3 5 7 9 9 10 11
12 10 8 9 8 6 5 4 2 3 3 2 3 3 5 6 6 3 3 3 3 3 3 2 1 1 1 1 1 1 1 1 2 2 2 2 2 3 5 8 9 10 10
11 10 9 8 7 6 5 5 3 3 2 1 1 2 4 4 5 4 3 4 3 3 3 3 1 1 0 1 1 1 0 1 1 1 1 1 1 2 4 5 6 8 10
10 9 9 9 7 5 4 4 3 1 0 0 0 1 2 3 4 3 3 4 4 3 3 3 1 2 2 1 2 2 2 1 1 1 1 1 1 1 2 4 5 6 7
11 10 9 9 8 6 4 3 3 2 1 1 1 1 1 2 2 2 4 3 3 3 4 4 3 2 1 1 2 2 2 3 2 1 0 1 1 0 1 2 4 6 6
11 11 10 9 8 7 6 4 3 3 3 2 1 1 2 1 1 2 3 3 3 3 3 3 3 3 1 2 2 3 3 1 1 2 2 1 1 1 0 0 2 4 6
11 10 10 10 9 7 7 6 5 3 2 3 2 2 2 2 1 1 2 3 3 2 2 3 3 2 2 2 2 2 1 2 2 1 2 2 1 1 1 1 1 2 4
10 10 10 10 8 7 7 7 6 4 3 2 1 1 1 2 2 1 1 2 2 2 2 3 3 3 2 2 1 1 2 3 2 3 1 2 2 1 1 1 1 1 3
8 9 10 10 8 7 7 7 7 6 4 2 2 2 1 1 2 2 1 1 1 1 2 2 3 3 3 3 2 2 2 2 1 2 2 1 1 2 2 2 1 1 2
Wind_Direction
152 161 147 140 133 127 122 118 114 112 110 108 107 105 102 101 102 104 103 102 100 100 98 91 86 85 84 82 78 72 68 67 69 74 78 83 85 86 91 96 96 91 89
149 150 143 137 132 129 127 122 117 114 112 111 110 110 107 105 106 106 106 105 107 109 110 107 101 96 93 89 83 74 65 60 55 55 59 73 98 104 105 106 109 103 97
137 138 137 135 131 129 125 121 117 113 110 108 109 113 112 112 113 113 115 115 116 124 129 134 127 122 120 110 96 80 63 48 34 20 19 41 146 136 129 124 121 112 107
138 138 137 136 132 128 123 117 112 106 101 98 96 100 106 107 107 109 140 136 173 204 205 196 183 172 169 167 160 117 24 4 3 354 360 254 185 153 147 139 132 124 117
137 139 142 139 134 129 126 122 116 107 98 92 87 82 66 43 305 282 279 268 263 257 247 232 227 220 214 213 224 248 275 304 333 346 347 184 174 164 158 150 143 137 129
139 144 146 143 141 139 137 133 129 124 113 103 49 316 312 304 290 285 281 276 265 258 253 243 236 236 237 233 232 241 255 269 303 319 317 196 179 175 167 160 153 149 143
147 152 155 152 152 149 147 146 146 137 122 41 291 289 296 297 295 292 283 276 270 264 256 249 243 242 242 239 237 241 248 258 269 266 262 209 190 181 171 168 163 159 154
155 163 165 165 162 159 158 160 162 163 183 250 285 289 286 286 287 286 282 276 270 266 263 256 248 246 245 241 238 240 245 253 264 281 276 215 202 188 177 172 166 164 162
160 163 172 175 171 170 170 174 182 193 215 244 270 286 287 288 288 284 278 272 268 265 260 256 252 250 245 241 241 242 243 252 264 272 268 218 203 187 178 173 171 169 169
163 169 175 183 180 181 184 189 195 209 231 251 268 278 284 292 296 291 281 272 264 264 263 259 253 251 248 242 242 246 249 255 259 265 262 230 208 190 182 176 174 173 171
165 174 179 182 182 189 198 209 210 225 249 271 284 289 297 301 299 293 286 271 261 265 267 263 258 254 250 248 248 251 258 252 259 263 252 236 211 194 186 180 176 177 175
161 172 171 168 173 187 206 210 220 244 259 274 284 298 302 298 296 296 293 284 272 273 272 271 268 265 252 244 253 255 251 253 260 260 251 235 210 196 189 185 181 181 179
161 155 153 154 160 163 173 168 189 205 223 284 299 309 331 339 328 332 323 314 301 291 287 290 291 279 233 211 222 223 228 234 251 262 260 229 208 198 191 189 187 185 183
150 150 146 145 143 145 136 136 149 130 119 69 23 21 24 3 347 344 333 310 299 292 280 280 275 259 231 219 209 209 218 211 238 253 252 227 209 201 196 193 190 188 187
153 149 144 142 135 128 117 109 100 108 133 99 41 20 21 11 353 348 329 328 314 301 271 273 271 256 242 223 211 209 216 213 228 232 239 226 216 207 202 198 196 193 191
156 151 143 133 132 123 111 101 106 122 121 83 46 24 32 27 7 9 359 347 335 321 296 262 264 258 250 228 224 215 207 206 218 225 242 224 218 212 206 201 200 196 194
159 153 144 135 128 122 117 114 116 123 111 83 56 43 41 39 34 19 9 354 337 337 338 339 316 319 295 252 235 226 210 194 199 212 228 222 214 215 210 207 204 200 195
156 155 152 136 132 129 125 118 114 111 101 93 81 49 36 33 35 25 8 347 341 358 355 346 339 355 326 290 247 232 214 189 208 211 212 219 203 206 212 208 207 203 199
157 151 141 137 140 135 120 109 97 92 94 109 90 54 32 27 28 29 7 343 354 6 359 337 13 24 328 315 258 216 202 178 205 207 202 214 204 208 210 208 206 206 203
155 149 143 141 140 127 104 93 76 70 71 84 79 58 48 35 29 29 8 357 2 15 2 356 356 17 353 293 300 53 245 168 178 181 192 182 208 218 209 206 202 205 206
151 150 147 145 148 131 114 118 119 125 149 72 299 84 66 47 34 34 17 7 11 19 4 360 18 33 14 26 65 39 19 63 109 150 182 158 201 216 210 203 199 197 202
159 159 153 152 152 145 142 150 158 159 181 193 269 351 31 49 28 40 35 20 14 21 19 20 37 51 17 38 98 93 43 15 359 6 190 163 186 174 201 208 198 197 195
163 165 163 160 155 152 142 120 91 67 44 28 346 298 291 290 23 35 39 38 23 34 19 10 35 70 46 8 61 119 129 180 325 352 358 24 128 115 156 190 195 195 192
173 164 157 157 155 154 142 133 136 144 174 221 226 243 273 279 307 14 41 43 31 28 17 3 41 62 83 44 13 38 114 155 132 60 353 357 51 107 137 161 145 170 179
166 158 156 152 154 157 149 144 142 155 192 220 228 244 265 292 290 305 30 41 33 25 23 23 28 48 71 81 56 41 51 51 69 122 89 357 14 8 48 102 108 118 149
157 152 153 152 159 163 156 154 158 168 180 180 199 215 238 268 285 292 348 52 36 30 27 25 32 48 55 71 66 65 80 81 71 100 119 79 35 347 12 47 74 117 136
Height
1519 1519 1520 1521 1521 1522 1522 1522 1522 1522 1522 1523 1523 1523 1523 1523 1523 1523 1523 1523 1523 1523 1523 1523 1523 1523 1523 1523 1523 1523 1523 1522 1522 1522 1522 1522 1522 1522 1522 1522 1522 1521 1521
1518 1520 1521 1521 1522 1522 1522 1522 1522 1522 1522 1522 1522 1522 1522 1522 1523 1523 1522 1522 1522 1523 1523 1522 1523 1523 1522 1522 1523 1523 1522 1522 1522 1522 1522 1522 1522 1522 1522 1522 1522 1522 1522
1519 1520 1521 1521 1522 1522 1522 1522 1522 1522 1521 1521 1521 1521 1521 1521 1522 1522 1522 1522 1522 1522 1522 1522 1522 1522 1522 1522 1522 1522 1522 1522 1522 1522 1522 1522 1522 1522 1523 1523 1523 1523 1523
1519 1520 1521 1521 1522 1522 1521 1521 1521 1521 1520 1520 1520 1520 1520 1520 1520 1520 1520 1520 1521 1521 1521 1521 1521 1521 1521 1521 1521 1521 1522 1522 1522 1522 1522 1522 1522 1522 1523 1523 1523 1523 1523
1519 1520 1521 1521 1521 1521 1521 1521 1520 1520 1519 1519 1519 1519 1519 1518 1518 1519 1519 1519 1519 1519 1519 1519 1520 1520 1520 1520 1520 1521 1521 1521 1521 1521 1521 1522 1522 1522 1522 1523 1523 1523 1524
1519 1520 1521 1521 1521 1521 1520 1520 1519 1518 1518 1517 1517 1517 1517 1516 1516 1516 1517 1517 1517 1517 1517 1518 1518 1518 1518 1519 1519 1519 1520 1520 1520 1521 1521 1521 1521 1522 1522 1523 1523 1523 1524
1520 1520 1521 1521 1521 1520 1520 1519 1518 1517 1516 1515 1515 1515 1514 1514 1514 1514 1514 1514 1515 1515 1515 1516 1516 1516 1517 1517 1518 1518 1519 1519 1519 1520 1520 1520 1521 1521 1522 1522 1523 1523 1524
1520 1520 1521 1521 1520 1520 1519 1518 1517 1516 1515 1514 1514 1513 1513 1512 1512 1512 1512 1512 1512 1512 1513 1513 1513 1514 1515 1515 1516 1516 1517 1518 1518 1519 1519 1519 1520 1520 1521 1522 1522 1523 1524
1520 1520 1520 1520 1520 1520 1519 1518 1517 1516 1515 1514 1513 1512 1512 1511 1511 1510 1510 1510 1510 1510 1510 1510 1510 1511 1512 1513 1514 1515 1515 1516 1517 1518 1518 1518 1519 1520 1520 1521 1522 1522 1523
1519 1520 1520 1520 1520 1519 1518 1517 1516 1516 1515 1514 1513 1512 1511 1510 1510 1509 1508 1508 1508 1508 1507 1508 1508 1509 1510 1511 1512 1512 1514 1514 1515 1516 1517 1517 1518 1519 1519 1520 1521 1522 1523
1519 1519 1519 1519 1519 1519 1518 1517 1516 1515 1514 1513 1512 1511 1510 1509 1508 1508 1507 1506 1506 1506 1505 1505 1506 1506 1507 1508 1509 1510 1511 1512 1514 1514 1515 1516 1517 1518 1518 1519 1520 1521 1522
1518 1518 1519 1519 1518 1518 1517 1517 1516 1515 1514 1513 1512 1511 1509 1508 1507 1507 1506 1505 1505 1504 1504 1504 1503 1504 1504 1505 1507 1508 1509 1510 1512 1513 1514 1515 1516 1517 1517 1518 1519 1520 1521
1517 1518 1518 1518 1518 1517 1517 1516 1515 1514 1513 1512 1511 1510 1509 1508 1506 1505 1504 1504 1503 1503 1502 1502 1501 1501 1502 1503 1505 1506 1507 1508 1510 1511 1512 1513 1514 1515 1516 1517 1518 1519 1521
1516 1517 1517 1517 1517 1517 1516 1515 1515 1514 1513 1512 1511 1509 1508 1507 1506 1504 1503 1502 1502 1501 1500 1500 1500 1500 1500 1501 1502 1504 1505 1506 1508 1509 1510 1511 1513 1514 1515 1516 1517 1518 1520
1516 1516 1517 1516 1516 1516 1515 1515 1514 1513 1512 1511 1510 1509 1507 1506 1505 1503 1502 1501 1500 1499 1499 1498 1498 1498 1498 1499 1500 1501 1503 1504 1506 1507 1509 1510 1511 1513 1514 1515 1516 1517 1518
1514 1515 1516 1515 1515 1515 1514 1514 1513 1512 1512 1511 1509 1508 1506 1505 1503 1502 1501 1499 1498 1498 1497 1496 1496 1496 1497 1497 1498 1499 1501 1502 1504 1505 1507 1509 1510 1511 1513 1514 1515 1516 1517
1512 1514 1514 1514 1514 1514 1513 1513 1512 1511 1511 1510 1509 1507 1506 1504 1502 1501 1499 1498 1497 1496 1495 1495 1495 1495 1495 1496 1496 1497 1499 1500 1502 1503 1505 1507 1509 1510 1512 1513 1514 1515 1516
1511 1512 1512 1513 1513 1513 1512 1512 1511 1511 1510 1509 1508 1507 1505 1503 1502 1500 1498 1497 1496 1495 1494 1493 1493 1493 1494 1494 1495 1496 1497 1498 1500 1502 1503 1505 1507 1508 1510 1512 1513 1514 1516
1509 1510 1511 1511 1512 1512 1511 1511 1511 1510 1509 1508 1507 1506 1504 1502 1501 1499 1497 1496 1494 1493 1493 1492 1492 1492 1492 1493 1493 1494 1496 1497 1498 1500 1502 1504 1505 1507 1509 1510 1512 1513 1515
1507 1509 1509 1510 1510 1510 1510 1510 1510 1509 1509 1508 1506 1505 1503 1502 1500 1498 1497 1495 1494 1493 1492 1491 1491 1491 1491 1491 1492 1493 1494 1496 1497 1498 1500 1502 1504 1505 1507 1509 1510 1512 1514
1506 1507 1508 1508 1509 1509 1509 1509 1509 1509 1508 1507 1506 1505 1503 1501 1500 1498 1496 1495 1494 1492 1491 1490 1490 1490 1490 1491 1491 1492 1494 1495 1496 1497 1499 1500 1502 1504 1505 1507 1509 1511 1513
1504 1506 1506 1507 1508 1508 1508 1508 1508 1508 1507 1507 1506 1504 1503 1501 1500 1498 1496 1495 1493 1492 1491 1490 1490 1490 1490 1490 1491 1491 1493 1495 1495 1497 1498 1499 1501 1502 1504 1506 1508 1510 1512
1502 1504 1504 1505 1506 1507 1506 1506 1507 1507 1506 1506 1505 1504 1503 1501 1500 1498 1497 1495 1494 1492 1491 1490 1490 1489 1489 1490 1490 1492 1492 1493 1494 1496 1496 1498 1500 1501 1503 1504 1506 1508 1510
1501 1502 1503 1504 1505 1505 1505 1505 1505 1505 1505 1505 1505 1504 1503 1502 1500 1499 1497 1496 1494 1493 1491 1490 1490 1490 1490 1490 1490 1491 1492 1493 1493 1495 1496 1497 1499 1500 1502 1503 1505 1507 1509
1499 1500 1501 1502 1503 1504 1504 1504 1504 1504 1504 1504 1504 1504 1503 1502 1501 1499 1498 1496 1495 1493 1492 1491 1490 1490 1490 1490 1491 1491 1492 1492 1493 1494 1495 1497 1498 1499 1501 1503 1504 1506 1508
1497 1498 1499 1500 1501 1502 1502 1503 1503 1503 1503 1503 1503 1503 1502 1502 1501 1499 1498 1497 1495 1494 1493 1492 1491 1491 1490 1491 1491 1491 1492 1492 1493 1494 1495 1496 1497 1499 1500 1502 1503 1505 1507